{"data":{"norad_id":57066,"intl_designator":"2023-088U","name":"STARLINK-5827","alt_names":[],"object_type":"PAYLOAD","status":"ACTIVE","operator":null,"country":"US","launch_date":"2023-06-22","launch_site_code":"AFWTR","launch_vehicle":null,"mission":null,"orbit_class":"UNKNOWN","rcs_meters":null,"size_class":null,"mass_kg":null,"dimensions":null,"purposes":["comms"],"wikipedia_slug":null,"has_3d_model":false,"image_url":null,"decayed_at":null,"tle_current":{"epoch":"2026-05-25T03:05:17.709216Z","epoch_age_seconds":64270,"freshness":"FRESH","line1":"1 57066U 23088U   26145.12867719  .00000432  00000+0  25206-4 0  9991","line2":"2 57066  43.0049  38.8886 0000951 257.0815 102.9930 15.27576615161041","mean_motion":15.27576615,"eccentricity":9.51e-5,"inclination_deg":43.0049,"raan_deg":38.8886,"arg_perigee_deg":257.0815,"mean_anomaly_deg":102.993,"bstar":2.5206e-5,"rev_number":16104,"period_min":94.266957601992,"perigee_km":482.40673220446,"apogee_km":483.71173172778,"semimajor_km":6861.1962319661,"source":"CELESTRAK","updated_at":"2026-05-25T13:38:18.211856Z"}}}